Location: Bocianicha
(51.5066°N, 19.2563°E)
Time: 14:20:09
(UTC+00:00)

Cosmos 2084 - Pass Details

Date: 15 June 2025
Orbit: 516 x 594 km, 62.8° (Epoch: 18 July)

Event Time Altitude Azimuth Distance (km) Brightness Sun altitude
Rises 00:49:07 0° 314° (NW) 2,699 7.1 -10.3°
Reaches altitude 10° 00:51:24 10° 321° (NW) 1,792 6.2 -10.1°
Maximum altitude 00:55:17 47° 36° (NE) 707 4.4 -9.8°
Drops below altitude 10° 00:59:06 10° 111° (ESE) 1,753 6.0 -9.5°
Sets 01:01:19 0° 117° (ESE) 2,633 6.9 -9.3°
